Location: Unspecified
(0.0000°N, 0.0000°E)
Time: 18:54:16
(UTC+00:00)

Tiros 1 despin weight - Pass Details

Date: 26 November 2019
Orbit: 594 x 642 km, 48.2° (Epoch: 05 December)

Event Time Altitude Azimuth Distance (km) Brightness Sun altitude
Rises 05:52:43 0° 182° (S) 2,896 ? 1.3°
Reaches altitude 10° 05:57:39 10° 136° (SE) 1,969 ? 2.5°
Maximum altitude 05:57:58 10° 131° (SE) 1,964 ? 2.5°
Drops below altitude 10° 05:58:18 10° 127° (SE) 1,966 ? 2.6°
Sets 06:03:09 0° 81° (E) 2,850 ? 3.7°
